Fort George G Meade, MD

8:51 PM EST on January 22, 2017 (GMT -0500)
Tipton

Weather History for KFME - December, 2012

Change the Weather History Date:

Thursday, December 20, 2012

  Actual Average (KBWI) Record (KBWI)
Temperature  
Mean Temperature 38 °F -  
Max Temperature 48 °F 44 °F 67 °F (1887)
Min Temperature 30 °F 27 °F 6 °F (1942)
Degree Days  
Heating Degree Days 27    
Moisture  
Dew Point 34 °F    
Average Humidity 83    
Maximum Humidity 100    
Minimum Humidity 57    
Precipitation  
Precipitation 0.00 in - - ()
Sea Level Pressure  
Sea Level Pressure 30.04 in    
Wind  
Wind Speed 3 mph (ESE)    
Max Wind Speed 13 mph    
Max Gust Speed 25 mph    
Visibility 8 miles    
Events      
Averages and records for this station are not official NWS values.
T = Trace of Precipitation, MM = Missing Value Source: NWS Daily Summary

Daily Weather History Graph

Daily Weather History Graph

Search for Another Location

Airport or City:

Trip Planner

Search our weather history database for the weather conditions in past years. The results will help you decide how hot, cold, wet, or windy it might be!

Date:

Astronomy

Dec. 20, 2012 Rise Set
Actual Time 7:22 AM EST 4:47 PM EST
Civil Twilight 6:52 AM EST 5:17 PM EST
Nautical Twilight 6:18 AM EST 5:51 PM EST
Astronomical Twilight 5:46 AM EST 6:23 PM EST
Moon 12:02 PM EST (12/20) 12:09 AM EST (12/20)
Length of Visible Light 10h 25m
Length of Day
9h 25m
First Quarter, 55% of the Moon is Illuminated
Dec 20
First Quarter
Dec 28
Full
Jan 4
Last Quarter
Jan 11
New
Jan 18
First Quarter

Hourly Weather History & Observations

Time (EST) Temp. Windchill Dew Point Humidity Pressure Visibility Wind Dir Wind Speed Gust Speed Precip Events Conditions
12:00 AM 32.0 °F - 32.0 °F 100% 30.20 in 10.0 mi Calm Calm - N/A   Clear
12:24 AM 32.0 °F - 30.2 °F 93% 30.19 in 10.0 mi Calm Calm - N/A   Clear
12:45 AM 32.0 °F - 28.4 °F 87% 30.19 in 10.0 mi Calm Calm - N/A   Clear
1:06 AM 32.0 °F - 30.2 °F 93% 30.19 in 10.0 mi Calm Calm - N/A   Clear
1:27 AM 30.2 °F - 28.4 °F 93% 30.20 in 10.0 mi Calm Calm - N/A   Clear
1:48 AM 30.2 °F - 30.2 °F 100% 30.21 in 7.0 mi Calm Calm - N/A   Clear
2:09 AM 30.2 °F - 28.4 °F 93% 30.21 in 10.0 mi Calm Calm - N/A   Clear
2:30 AM 30.2 °F - 30.2 °F 100% 30.21 in 7.0 mi Calm Calm - N/A   Clear
2:51 AM 30.2 °F - 30.2 °F 100% 30.22 in 7.0 mi Calm Calm - N/A   Clear
3:12 AM 32.0 °F - 30.2 °F 93% 30.21 in 10.0 mi Calm Calm - N/A   Clear
3:54 AM 32.0 °F - 32.0 °F 100% 30.24 in 10.0 mi Calm Calm - N/A   Clear
4:18 AM 32.0 °F - 32.0 °F 100% 30.22 in 10.0 mi Calm Calm - N/A   Clear
4:39 AM 32.0 °F - 32.0 °F 100% 30.21 in 10.0 mi Calm Calm - N/A   Clear
5:00 AM 32.0 °F - 32.0 °F 100% 30.21 in 10.0 mi Calm Calm - N/A   Clear
5:21 AM 32.0 °F - 32.0 °F 100% 30.23 in 10.0 mi Calm Calm - N/A   Clear
5:42 AM 32.0 °F - 32.0 °F 100% 30.22 in 10.0 mi Calm Calm - N/A   Clear
6:03 AM 32.0 °F - 32.0 °F 100% 30.23 in 10.0 mi Calm Calm - N/A   Clear
6:24 AM 32.0 °F - 32.0 °F 100% 30.22 in 10.0 mi Calm Calm - N/A   Clear
6:45 AM 32.0 °F - 32.0 °F 100% 30.22 in 10.0 mi Calm Calm - N/A   Clear
7:06 AM 32.0 °F - 32.0 °F 100% 30.22 in 7.0 mi Calm Calm - N/A   Clear
7:27 AM 32.0 °F - 32.0 °F 100% 30.21 in 7.0 mi Calm Calm - N/A   Clear
7:48 AM 32.0 °F - 32.0 °F 100% 30.22 in 5.0 mi Calm Calm - N/A   Clear
8:09 AM 32.0 °F - 32.0 °F 100% 30.21 in 5.0 mi Calm Calm - N/A   Clear
8:33 AM 32.0 °F - 32.0 °F 100% 30.20 in 7.0 mi Calm Calm - N/A   Clear
8:54 AM 33.8 °F - 32.0 °F 93% 30.20 in 10.0 mi Calm Calm - N/A   Clear
9:15 AM 35.6 °F - 33.8 °F 93% 30.20 in 10.0 mi Calm Calm - N/A   Clear
9:36 AM 39.2 °F - 33.8 °F 81% 30.21 in 10.0 mi Calm Calm - N/A   Clear
9:57 AM 41.0 °F 39.0 °F 33.8 °F 76% 30.19 in 10.0 mi ESE 3.5 mph - N/A   Clear
10:18 AM 42.8 °F 40.1 °F 33.8 °F 70% 30.18 in 10.0 mi SSE 4.6 mph - N/A   Clear
10:39 AM 42.8 °F 37.0 °F 32.0 °F 66% 30.15 in 10.0 mi East 10.4 mph - N/A   Clear
11:00 AM 44.6 °F 39.7 °F 32.0 °F 61% 30.13 in 10.0 mi ESE 9.2 mph - N/A   Clear
11:42 AM 44.6 °F 40.2 °F 30.2 °F 57% 30.13 in 10.0 mi SE 8.1 mph - N/A   Clear
12:03 PM 44.6 °F 41.4 °F 30.2 °F 57% 30.13 in 10.0 mi SE 5.8 mph - N/A   Clear
12:24 PM 44.6 °F 40.2 °F 30.2 °F 57% 30.12 in 10.0 mi ESE 8.1 mph - N/A   Clear
12:48 PM 44.6 °F 39.7 °F 30.2 °F 57% 30.11 in 10.0 mi SE 9.2 mph - N/A   Clear
1:09 PM 44.6 °F 38.8 °F 30.2 °F 57% 30.09 in 10.0 mi SE 11.5 mph - N/A   Clear
1:51 PM 44.6 °F 40.2 °F 30.2 °F 57% 30.09 in 10.0 mi SE 8.1 mph - N/A   Clear
2:12 PM 44.6 °F 40.2 °F 30.2 °F 57% 30.09 in 10.0 mi SE 8.1 mph - N/A   Clear
2:33 PM 42.8 °F 37.5 °F 30.2 °F 61% 30.06 in 10.0 mi ESE 9.2 mph - N/A   Clear
2:54 PM 42.8 °F 38.6 °F 30.2 °F 61% 30.05 in 10.0 mi ESE 6.9 mph - N/A   Mostly Cloudy
3:15 PM 42.8 °F 38.0 °F 30.2 °F 61% 30.03 in 10.0 mi SE 8.1 mph - N/A   Overcast
3:36 PM 42.8 °F 37.0 °F 32.0 °F 66% 30.02 in 10.0 mi SE 10.4 mph - N/A   Overcast
3:57 PM 42.8 °F 37.0 °F 32.0 °F 66% 29.99 in 10.0 mi ESE 10.4 mph 17.3 mph N/A   Overcast
4:18 PM 42.8 °F 36.2 °F 33.8 °F 70% 29.97 in 10.0 mi ESE 12.7 mph 17.3 mph N/A   Overcast
4:39 PM 42.8 °F 39.3 °F 33.8 °F 70% 29.98 in 10.0 mi SE 5.8 mph - N/A   Overcast
5:03 PM 42.8 °F 38.6 °F 33.8 °F 70% 29.98 in 10.0 mi SE 6.9 mph - N/A   Mostly Cloudy
5:24 PM 42.8 °F 38.0 °F 33.8 °F 70% 29.96 in 10.0 mi ESE 8.1 mph - N/A   Overcast
5:45 PM 42.8 °F 37.5 °F 33.8 °F 70% 29.94 in 10.0 mi ESE 9.2 mph - N/A   Overcast
6:06 PM 44.6 °F 38.8 °F 33.8 °F 66% 29.90 in 10.0 mi East 11.5 mph - N/A   Overcast
6:27 PM 44.6 °F 40.2 °F 33.8 °F 66% 29.91 in 10.0 mi ESE 8.1 mph - N/A   Overcast
6:48 PM 44.6 °F 39.2 °F 33.8 °F 66% 29.91 in 10.0 mi ESE 10.4 mph 18.4 mph N/A   Overcast
7:09 PM 42.8 °F 36.6 °F 35.6 °F 76% 29.88 in 10.0 mi ESE 11.5 mph 16.1 mph N/A   Overcast
7:30 PM 42.8 °F 36.6 °F 35.6 °F 76% 29.86 in 7.0 mi ESE 11.5 mph 17.3 mph N/A   Overcast
7:51 PM 41.0 °F 34.7 °F 37.4 °F 87% 29.84 in 7.0 mi ESE 10.4 mph 16.1 mph N/A   Overcast
8:12 PM 41.0 °F 34.7 °F 37.4 °F 87% 29.82 in 7.0 mi East 10.4 mph - N/A   Overcast
8:33 PM 41.0 °F 36.4 °F 39.2 °F 93% 29.80 in 4.0 mi East 6.9 mph - N/A   Mostly Cloudy
8:54 PM 41.0 °F 35.8 °F 39.2 °F 93% 29.79 in 5.0 mi ESE 8.1 mph - N/A   Scattered Clouds
9:15 PM 42.8 °F 37.0 °F 41.0 °F 93% 29.76 in 4.0 mi East 10.4 mph - N/A   Scattered Clouds
9:39 PM 42.8 °F 36.2 °F 41.0 °F 93% 29.71 in 4.0 mi East 12.7 mph - N/A   Mostly Cloudy
10:00 PM 42.8 °F 36.2 °F 41.0 °F 93% 29.65 in 3.0 mi East 12.7 mph 21.9 mph N/A   Unknown
10:21 PM 44.6 °F 38.4 °F 42.8 °F 93% 29.63 in 4.0 mi East 12.7 mph 20.7 mph N/A   Scattered Clouds
10:42 PM 44.6 °F 39.2 °F 42.8 °F 93% 29.60 in 4.0 mi ESE 10.4 mph - N/A   Scattered Clouds
11:03 PM 46.4 °F 42.9 °F 44.6 °F 93% 29.57 in 4.0 mi ESE 6.9 mph 20.7 mph N/A   Clear
11:24 PM 46.4 °F 41.5 °F 44.6 °F 93% 29.55 in 2.5 mi ESE 10.4 mph - N/A   Unknown
11:45 PM 48.2 °F - 46.4 °F 93% 29.51 in 4.0 mi SE 12.7 mph 25.3 mph N/A   Scattered Clouds